Presure
165 164 147 104 115 146 118 152 134 124 183 180 179 107 141 87 102 150 153 143 157 175 127 167 168 172 174 161 182 171 177 205 190 151 183 177 180 94 168 177 168 162 173 165
131 138 140 133 102 129 178 128 134 126 136 145 147 111 165 151 139 131 147 146 165 160 162 169 163 167 161 173 179 174 179 163 151 176 176 193 188 169 173 172 174 171 166 173
154 151 143 118 131 134 115 153 158 124 147 119 170 155 140 115 122 146 157 153 170 135 162 155 169 170 165 170 173 172 174 167 183 178 184 177 194 191 195 180 168 173 169 162
173 126 140 164 154 177 139 144 139 117 167 169 115 99 105 130 139 109 167 143 142 167 159 166 169 165 169 168 173 173 174 164 176 177 161 172 180 155 178 188 174 186 177 184
165 180 139 107 180 162 154 152 133 172 165 112 159 125 146 146 136 152 148 139 142 134 144 170 167 163 171 171 168 172 172 175 170 173 187 174 163 161 160 162 188 181 178 170
196 139 127 140 168 146 156 169 161 159 98 145 174 148 158 141 159 137 137 151 143 148 151 159 172 167 172 174 177 174 165 177 178 170 180 166 170 160 169 173 170 172 183 181
129 164 156 170 173 142 187 165 155 162 180 152 130 149 151 170 138 155 138 134 145 162 157 172 174 167 174 172 167 173 172 174 165 173 188 173 161 172 189 182 181 186 185 193
176 155 175 148 177 153 173 164 162 161 140 131 163 141 178 145 143 130 125 179 168 161 151 176 179 180 170 169 172 172 173 180 177 179 177 183 181 177 169 194 170 203 198 172
163 181 163 161 135 138 157 164 161 156 150 154 153 137 143 147 154 170 138 179 165 160 161 177 177 178 180 179 175 183 179 181 150 183 190 203 165 191 188 166 198 213 214 187
157 168 165 158 160 159 161 180 178 159 171 169 155 163 147 136 179 161 176 176 169 161 175 176 181 178 173 187 183 178 176 176 178 190 214 187 187 185 182 187 177 208 228 238
172 182 173 207 185 164 158 155 149 155 113 154 149 155 186 179 179 183 178 182 178 161 184 181 182 192 187 176 172 183 185 185 197 209 175 200 193 185 181 178 191 237 235 239
202 88 175 218 192 165 157 156 159 166 157 155 179 190 168 188 187 177 178 177 178 187 188 183 188 179 180 182 147 173 191 176 212 165 200 209 175 180 199 200 231 219 232 236
214 200 238 162 150 168 193 167 175 164 164 201 191 193 139 187 187 153 188 176 191 189 190 193 197 192 183 174 196 203 184 203 198 197 200 201 187 184 199 235 226 226 246 317
177 163 186 164 169 175 160 137 172 180 196 199 186 190 189 193 181 186 175 189 189 194 190 198 190 198 175 173 192 206 203 212 202 197 190 191 201 227 228 228 262 298 334 346
197 191 194 128 181 193 182 180 186 183 198 189 197 195 188 177 189 192 201 195 190 196 199 195 196 195 183 172 207 197 195 205 194 194 201 207 233 210 216 258 260 254 322 321
195 179 204 214 205 171 205 201 179 202 198 200 203 194 194 195 199 196 198 187 189 145 196 202 193 190 194 206 195 217 186 179 181 206 212 237 214 246 290 246 234 313 324 309
181 193 193 199 211 210 208 177 201 212 205 198 194 203 191 201 198 196 196 193 191 205 198 189 183 203 184 201 186 189 182 201 209 230 217 231 250 272 245 259 312 307 312 302
193 208 206 214 196 212 185 197 198 203 206 202 197 200 206 196 190 191 191 198 203 184 191 202 203 190 194 202 180 207 200 225 223 219 249 248 255 236 281 298 311 303 307 301
232 216 221 206 217 212 199 199 206 204 206 188 192 193 196 182 191 188 204 195 200 195 197 206 206 197 185 203 201 203 214 222 216 260 261 243 287 300 311 310 301 305 301 304
221 223 222 218 218 220 213 208 188 205 198 202 201 197 198 193 189 199 199 202 210 194 217 200 200 203 193 204 216 231 215 223 289 279 236 256 307 310 311 304 301 305 302 312
224 223 221 220 218 204 203 200 187 203 201 201 203 196 189 190 190 200 193 205 185 199 181 202 203 203 209 219 234 223 287 267 241 237 295 320 316 313 306 303 305 305 307 318
229 229 226 214 217 209 198 209 205 216 207 200 192 191 183 200 197 207 206 201 200 188 196 195 195 204 221 226 246 281 236 242 271 335 323 318 312 308 308 308 310 316 322 324
224 232 230 230 217 192 181 211 215 206 194 190 194 180 205 205 191 182 162 196 199 195 203 213 221 227 242 301 244 251 257 343 346 343 325 311 309 317 322 329 342 344 337 333
236 229 226 217 178 209 207 203 195 195 191 198 179 207 193 211 215 174 196 196 203 212 221 230 243 277 239 255 269 290 345 339 336 338 338 347 355 414 400 385 375 360 349 340
226 216 208 188 206 201 201 198 188 185 190 175 206 184 214 189 203 208 205 209 218 229 240 263 250 252 270 316 346 338 331 330 362 389 386 394 395 403 459 423 393 375 362 348
220 178 207 202 195 201 157 195 179 171 207 194 182 181 203 190 201 207 209 225 246 265 302 252 265 328 343 340 342 342 363 407 393 385 381 380 378 374 408 388 375 389 376 363
Wind_Speed
84 84 86 57 53 83 52 81 68 40 62 67 60 68 77 36 65 83 84 87 83 78 69 81 79 70 65 67 66 63 61 54 60 60 67 62 67 27 64 70 72 68 76 69
76 76 80 70 49 65 76 58 66 61 64 83 83 55 76 73 74 77 89 88 81 79 84 81 82 78 73 73 72 67 66 70 68 65 67 72 75 70 72 72 76 75 71 84
78 78 87 57 68 65 51 71 71 70 85 61 67 75 67 59 65 88 84 88 79 77 82 87 84 87 80 84 84 71 66 69 63 64 62 68 66 68 76 82 79 87 82 81
80 69 89 82 92 77 84 84 80 65 63 74 65 53 59 74 80 64 79 92 89 80 92 84 87 88 91 87 90 84 80 77 78 71 80 74 68 64 77 74 83 82 81 91
90 75 89 66 77 87 95 86 69 67 74 63 87 68 93 94 85 94 95 90 93 76 92 87 88 92 95 92 87 89 82 83 83 83 74 81 90 84 84 85 86 90 95 93
83 82 80 93 78 83 79 79 70 84 60 91 77 67 77 92 85 89 90 90 101 99 105 83 90 92 96 97 96 92 81 91 90 84 82 85 89 89 96 97 97 98 96 101
76 90 95 81 76 80 77 86 88 82 65 82 83 91 95 78 90 94 94 87 103 92 101 93 91 96 97 98 95 97 92 96 90 89 87 92 94 100 93 100 100 99 111 112
81 98 82 99 75 80 83 91 87 85 84 83 79 99 76 103 104 84 75 90 90 92 106 93 94 91 95 97 97 95 95 98 94 96 95 94 95 101 98 101 103 105 112 86
90 85 95 94 86 75 104 98 86 93 91 90 86 98 109 109 105 92 93 92 90 88 95 95 95 95 96 97 96 96 99 100 74 106 98 89 85 101 102 92 109 110 114 114
94 95 95 99 99 100 104 92 85 60 77 72 88 85 106 91 89 101 93 94 93 92 95 96 97 96 98 98 94 99 101 103 107 108 95 94 105 100 110 116 108 119 132 133
98 86 93 76 88 100 104 109 103 103 66 96 90 94 86 90 91 93 92 94 90 93 96 94 98 96 91 93 99 109 107 108 104 93 89 100 108 112 110 107 122 133 137 136
84 40 91 81 81 99 105 107 109 100 98 104 94 75 90 89 95 94 93 91 91 94 94 95 96 95 97 101 69 104 107 88 96 83 97 96 96 110 123 124 136 132 138 134
77 75 75 98 104 100 81 94 94 99 98 84 83 85 91 90 89 81 99 90 97 91 93 94 92 92 94 85 98 101 106 93 106 108 107 112 111 113 122 137 138 136 142 109
89 99 82 101 95 94 101 90 86 91 94 81 88 83 96 95 87 94 89 96 90 91 90 93 93 92 95 99 106 102 100 102 105 107 109 116 122 135 134 138 131 116 89 73
90 84 89 67 88 87 78 73 88 94 84 91 87 86 92 89 96 96 94 92 89 92 95 94 95 97 100 98 100 99 105 105 109 115 120 125 136 126 132 130 120 120 84 73
102 58 96 84 96 55 93 84 92 85 90 90 88 83 89 88 88 88 91 86 89 73 94 92 92 100 100 96 100 104 108 105 109 125 132 133 128 136 117 121 122 88 76 71
89 106 85 96 90 92 78 94 88 79 84 83 83 84 83 82 83 83 86 90 96 96 94 95 99 102 101 103 109 110 109 121 127 132 128 135 137 120 120 118 92 84 75 69
113 104 102 97 95 70 73 81 78 77 77 79 78 80 78 80 78 83 90 95 92 92 96 98 97 103 105 108 99 115 120 135 133 133 132 132 122 121 107 99 85 80 73 67
87 94 92 95 87 82 75 75 72 75 73 78 78 77 80 77 81 87 92 92 92 92 95 96 97 105 113 117 118 119 132 137 131 136 132 120 115 109 97 88 82 75 71 66
88 87 89 90 84 74 68 68 75 73 73 75 78 78 79 81 82 90 90 92 95 95 95 99 101 108 112 123 134 136 129 133 127 125 117 120 106 97 89 84 80 74 69 65
81 81 84 83 78 73 71 70 72 71 72 75 76 76 77 83 86 93 88 92 93 98 100 106 109 114 121 128 135 133 133 121 115 118 121 103 96 90 86 82 79 75 70 65
75 77 73 76 76 71 71 65 71 67 70 71 72 77 87 89 90 93 93 95 96 105 104 108 106 118 130 133 136 126 117 119 127 101 97 98 93 90 85 81 78 75 70 65
73 66 65 61 66 66 64 68 65 69 69 71 79 78 90 89 86 92 70 101 103 105 109 119 127 132 137 133 118 119 123 103 100 95 89 91 94 90 84 82 76 72 68 64
55 54 54 54 59 62 63 68 66 68 72 80 79 89 82 97 97 84 100 103 107 115 125 135 138 143 116 124 132 133 106 103 100 96 91 85 84 67 68 70 69 68 67 64
53 52 55 52 58 63 65 66 63 69 77 80 85 83 94 87 95 101 102 106 119 132 136 138 118 125 133 124 105 103 102 107 96 93 91 82 71 65 52 57 62 65 67 65
40 48 46 53 60 63 68 63 67 74 83 79 84 87 95 95 98 98 106 126 135 137 129 124 134 117 104 103 102 100 94 77 82 86 89 84 77 75 59 56 59 60 64 65
Wind_Direction
281 284 295 289 292 302 284 301 313 301 308 312 315 310 323 314 320 326 326 327 329 326 324 330 331 332 331 324 327 318 328 310 303 326 295 297 285 302 291 282 285 295 276 289
293 288 294 298 295 301 290 290 307 295 317 318 316 314 318 319 322 321 323 324 326 326 325 325 326 326 325 325 325 323 323 316 321 309 305 293 289 294 291 287 280 285 289 284
278 276 292 289 298 289 283 298 297 307 311 297 310 317 309 317 315 321 322 322 321 325 321 326 322 320 321 322 323 319 318 319 314 304 299 297 295 291 285 285 294 284 290 301
262 290 291 278 291 281 297 298 304 295 299 307 292 301 308 310 316 315 317 320 321 319 320 320 318 317 317 319 318 319 321 315 314 309 310 302 298 312 287 280 289 281 282 281
268 261 288 279 273 286 292 296 301 291 298 294 303 305 311 314 315 314 316 317 318 322 323 315 314 315 313 314 314 315 317 314 310 312 308 304 307 309 307 304 285 282 282 292
260 281 287 290 277 285 283 279 282 292 299 304 298 308 310 311 310 312 313 313 317 317 318 314 310 311 311 310 310 313 312 314 309 306 305 304 302 310 302 297 300 296 291 289
277 265 275 267 269 275 270 279 289 288 289 301 302 306 305 303 307 307 311 313 314 310 313 310 309 308 306 307 310 311 310 307 303 303 302 295 305 295 292 290 292 294 287 283
258 273 257 282 262 277 270 279 285 286 299 303 300 304 301 303 303 308 313 300 302 306 309 305 304 302 304 303 304 307 304 300 301 298 296 292 289 289 301 288 300 286 281 296
264 260 264 268 281 277 284 282 284 290 294 293 295 301 300 299 300 299 306 298 300 303 305 302 301 300 300 300 304 302 299 299 312 297 297 290 306 287 290 306 293 295 291 296
269 260 262 271 271 273 278 274 277 280 287 290 294 293 293 298 292 296 295 297 296 302 301 300 298 297 298 301 300 299 298 298 297 297 295 298 294 297 297 291 302 294 298 297
260 261 260 268 264 269 278 280 288 288 292 292 291 290 292 291 290 289 293 294 295 297 297 296 295 297 299 300 299 297 297 298 299 295 305 292 289 292 298 302 297 302 299 298
264 272 263 271 267 269 274 281 282 285 288 287 289 292 288 291 288 291 293 294 296 296 295 294 297 298 298 296 309 298 295 300 292 307 292 294 303 300 294 296 302 301 302 303
269 269 271 267 279 271 272 280 283 286 286 292 295 286 294 292 291 301 290 294 295 295 295 296 296 296 295 300 296 293 293 300 293 293 294 294 297 302 301 303 302 302 303 305
267 268 265 263 270 272 276 282 288 289 298 288 294 290 289 287 291 290 292 293 293 294 296 297 297 292 293 294 292 296 296 300 303 303 304 301 302 304 304 303 304 306 311 311
270 271 278 283 275 279 280 289 289 297 289 296 287 290 287 294 291 291 291 292 297 299 298 298 296 294 292 299 300 300 301 307 301 301 303 304 304 303 303 307 307 306 312 311
278 278 281 275 281 279 289 291 293 290 292 288 286 287 288 289 291 293 293 293 298 310 297 295 295 295 300 301 297 304 300 306 305 304 303 303 304 305 307 304 305 312 312 310
276 279 282 282 281 284 286 289 291 280 282 286 286 286 289 291 290 293 296 297 298 298 297 294 293 297 300 299 298 299 304 302 303 302 304 304 306 307 305 305 312 310 310 307
273 274 276 276 282 282 275 290 291 286 282 283 286 290 290 292 295 298 298 296 295 293 293 295 295 293 299 298 300 304 303 303 302 304 305 306 306 302 308 308 309 308 307 305
261 267 269 277 279 285 287 286 284 282 280 284 287 290 291 293 296 294 297 294 292 288 290 294 294 292 298 303 304 305 304 303 304 305 306 302 307 308 307 306 305 305 304 303
262 266 271 275 278 280 282 283 285 284 284 286 287 290 294 295 294 295 293 292 294 290 300 296 301 304 302 302 302 302 304 304 306 306 301 303 305 304 303 303 303 302 300 298
262 264 267 273 277 282 282 283 285 282 284 285 289 293 293 293 297 296 299 295 296 297 300 302 303 302 303 304 302 304 305 304 301 301 306 302 301 300 300 301 299 298 297 293
256 261 267 273 275 278 282 281 282 283 285 290 292 292 291 296 294 295 297 295 303 295 302 302 306 307 303 302 304 304 301 301 306 301 301 299 298 297 298 297 296 294 291 287
259 261 266 271 275 278 281 282 284 288 293 293 288 288 296 295 296 293 303 293 298 299 300 303 303 304 303 305 302 302 303 300 300 299 299 297 296 295 295 292 289 285 282 279
254 261 267 273 271 279 280 284 289 290 293 293 289 294 297 299 301 307 297 299 302 305 304 303 303 304 303 305 307 306 303 302 301 299 297 293 289 280 278 277 275 274 273 270
258 268 271 271 277 279 284 288 289 294 290 287 293 290 300 299 298 300 300 306 306 304 304 304 304 306 307 306 305 304 304 302 299 295 296 293 289 285 271 268 269 267 266 264
264 271 272 274 279 283 283 291 283 285 293 295 291 294 300 299 303 307 310 305 303 304 306 305 306 308 307 306 304 302 299 289 287 286 288 290 290 289 279 276 272 266 264 262